#timestamp,LO_Frequency,Hit,StdDev 
1504533615.3,286047000.0,N,0.4
1504533635.1,286047000.4,N,0.5
1504533636.0,286047000.4,N,0.4
1504533655.8,286046998.8,N,0.6
1504533675.7,286046998.2,Y,0.0
1504533695.5,286047000.7,P,0.4
1504533715.3,286046999.9,N,0.4
1504533735.2,286047000.5,N,0.4
1504533755.0,286047000.4,N,0.3
1504533755.9,286047000.4,N,0.3
1504533775.7,286047000.2,N,0.3
1504533795.6,286046999.7,N,0.3
1504533815.4,286047002.3,Y,0.0
1504533835.2,286047000.2,P,0.0
1504533855.1,286047000.8,P,0.3
1504533856.0,286047000.8,N,0.3
1504533875.8,286046999.9,N,0.4
1504533895.7,286047000.0,N,0.4
1504533915.5,286046999.9,N,0.4
1504533935.3,286047000.2,N,0.3
1504533955.2,286047000.1,N,0.3
1504533975.9,286047002.0,Y,0.0
1504533995.7,286047001.6,P,0.7
1504534015.6,286047002.2,P,0.8
1504534035.4,286047001.9,N,0.8
1504534055.2,286047001.5,N,0.7
1504534075.1,286047001.4,N,0.6
1504534076.0,286047001.4,N,0.6
1504534095.8,286047001.9,Y,0.0
1504534115.6,286047002.4,P,0.5
1504534135.5,286047000.2,N,0.9
1504534155.3,286047000.7,N,0.8
1504534175.1,286047000.3,N,0.8
1504534195.9,286047001.1,N,0.8
1504534215.7,286047000.3,N,0.7
1504534235.5,286047000.8,N,0.7
1504534255.4,286046998.6,N,1.0
1504534275.2,286046998.4,N,1.1
1504534295.0,286046998.9,N,1.2
1504534296.0,286046998.9,N,1.2
1504534315.8,286046996.6,N,1.5
1504534335.6,286046996.9,N,1.6
1504534355.5,286046996.6,N,1.8
1504534375.3,286046999.5,N,1.7
1504534395.1,286046996.8,N,1.8
1504534415.9,286046997.7,N,1.8
1504534435.7,286046997.7,N,1.7
1504534455.5,286046997.5,N,1.7
1504534475.4,286046997.5,N,1.7
1504534495.2,286046995.1,N,1.9
1504534515.0,286046995.8,N,1.9
1504534515.9,286046995.8,N,2.0
1504534535.8,286046995.0,N,2.1
1504534555.6,286046995.6,N,2.1
1504534575.4,286046995.9,N,2.1
1504534595.3,286046996.2,N,2.1
1504534615.1,286046995.9,N,2.1
1504534635.8,286046996.0,N,2.1
1504534655.7,286046996.1,N,2.0
1504534675.5,286046993.3,Y,0.0
1504534695.4,286046995.2,P,1.3
1504534715.2,286046995.2,P,1.2
1504534735.0,286046995.6,P,1.1
1504534735.9,286046995.6,Y,0.0
1504534755.8,286046998.3,P,1.2
1504534775.6,286046999.2,N,1.4
1504534795.4,286046999.5,N,1.4
1504534815.3,286046998.1,N,1.2
1504534835.1,286046999.0,N,1.2
1504534836.0,286046999.0,N,1.1
1504534855.8,286046999.1,N,1.1
1504534875.7,286046998.3,N,1.0
1504534895.5,286046998.1,N,1.0
1504534915.3,286046998.5,N,0.9
1504534935.2,286046998.3,N,0.9
1504534955.0,286046998.5,N,0.8
1504534955.9,286046998.5,N,0.8
1504534975.7,286047001.0,N,1.0
1504534995.6,286046999.4,N,1.0
1504535015.4,286046999.5,N,1.0
1504535035.2,286046996.5,Y,0.0
1504535055.1,286046999.0,P,0.1
1504535056.0,286046999.0,P,0.1
1504535075.8,286046996.5,P,1.0
1504535095.7,286046996.8,Y,0.0
1504535115.5,286047001.1,P,1.4
1504535135.3,286046998.4,N,1.3
1504535155.2,286047001.2,N,1.4
1504535175.9,286046998.4,N,1.4
1504535195.7,286046998.7,N,1.3
1504535215.6,286046999.5,N,1.2
1504535235.4,286046997.2,N,1.3
1504535255.2,286046999.4,N,1.2
1504535275.1,286046999.5,N,1.2
1504535276.0,286046999.5,N,1.1
1504535295.8,286046998.7,N,1.1
1504535315.6,286046998.5,N,1.1
1504535335.5,286046998.3,N,1.1
1504535355.3,286046998.6,N,1.0
1504535375.1,286047000.7,N,1.1
1504535395.9,286047001.0,N,1.1
1504535415.7,286047000.1,N,1.1
1504535435.5,286047001.0,N,1.1
1504535455.4,286047000.3,N,1.1
1504535475.2,286046999.7,N,1.1
1504535495.0,286046999.8,N,1.1
1504535495.9,286046999.8,N,1.1
1504535515.8,286047000.6,N,1.1
1504535535.6,286047000.0,N,1.1
1504535555.4,286047000.6,N,1.1
1504535575.3,286046998.2,N,1.1
1504535595.1,286047001.0,N,1.1
1504535615.8,286046998.6,N,1.1
1504535635.7,286046998.8,N,1.1
1504535655.5,286046999.0,N,1.0
1504535675.3,286046998.9,N,1.0
1504535695.2,286046998.9,N,1.0
1504535715.0,286046998.1,N,1.0
1504535715.9,286046998.1,N,1.0
1504535735.7,286046999.0,N,1.0
1504535755.6,286046999.4,N,1.0
1504535775.4,286046998.6,N,0.9
1504535795.2,286046998.1,N,0.9
1504535815.1,286046998.3,N,1.0
1504535816.0,286046998.3,N,1.0
1504535835.8,286046998.9,N,1.0
1504535855.7,286046999.3,N,1.0
1504535875.5,286046996.5,Y,0.0
1504535895.3,286046998.9,P,0.2
1504535915.2,286046998.4,P,0.4
1504535935.9,286046998.4,P,0.4
1504535955.7,286047001.2,Y,0.0
1504535975.6,286047002.6,P,1.9
1504535995.4,286047000.1,N,1.6
1504536015.2,286047002.1,N,1.5
1504536035.1,286046999.8,N,1.4
1504536036.0,286046999.8,N,1.4
1504536055.8,286047000.3,N,1.3
1504536075.6,286046998.5,N,1.4
1504536095.5,286046998.3,N,1.4
1504536115.3,286047000.9,N,1.4
1504536135.1,286047000.5,N,1.3
1504536155.9,286046998.5,N,1.3
1504536175.7,286046998.2,N,1.4
1504536195.5,286046998.8,N,1.3
1504536215.4,286046998.2,N,1.4
1504536235.2,286047000.8,N,1.3
1504536255.0,286046998.2,N,1.4
1504536255.9,286046998.2,N,1.4
1504536275.8,286046998.4,N,1.4
1504536295.6,286046998.7,N,1.3
1504536315.4,286046999.4,N,1.3
1504536335.3,286046999.2,N,1.3
1504536355.1,286046998.3,N,1.3
1504536375.9,286046996.6,N,1.4
1504536395.7,286046999.6,N,1.3
1504536415.5,286046999.0,N,1.3
1504536435.4,286046999.3,N,1.3
1504536455.2,286046999.2,N,1.3
1504536475.0,286046998.4,N,1.2
1504536475.9,286046998.4,N,1.2
1504536495.8,286047000.9,N,1.3
1504536515.6,286047000.2,N,1.1
1504536535.4,286047002.4,N,1.3
1504536555.3,286047002.7,N,1.3
1504536575.1,286047002.4,N,1.4
1504536576.0,286047002.4,N,1.5
1504536595.8,286047002.8,N,1.6
1504536615.7,286047002.3,N,1.7
1504536635.5,286047002.5,N,1.7
1504536655.3,286047002.6,N,1.8
1504536675.2,286047002.7,N,1.9
1504536695.0,286047002.5,N,1.9
1504536695.9,286047002.5,N,1.9
1504536715.7,286047001.5,N,1.9
1504536735.6,286047002.4,N,1.9
1504536755.4,286047002.0,N,1.9
1504536775.2,286047002.3,N,1.9
1504536795.1,286047002.2,N,1.8
1504536796.0,286047002.2,N,1.8
1504536815.8,286047002.6,N,1.8
1504536835.6,286047002.6,N,1.8
1504536855.5,286047002.6,N,1.8
1504536875.3,286047002.1,N,1.7
1504536895.2,286047001.4,N,1.4
1504536915.9,286047004.0,N,1.4
1504536935.7,286047004.1,N,1.4
1504536955.6,286047004.0,N,1.4
1504536975.4,286047003.8,N,1.3
1504536995.2,286047001.5,N,1.1
1504537015.1,286047002.1,N,0.8
1504537016.0,286047002.1,N,0.8
1504537035.8,286047002.1,N,0.7
1504537055.6,286047001.5,N,0.7
1504537075.5,286047001.4,N,0.7
1504537095.3,286047001.3,N,0.7
1504537115.1,286047001.5,N,0.8
1504537135.9,286047001.3,N,0.8
1504537155.7,286047002.4,Y,0.0
1504537175.5,286047000.9,P,0.7
1504537195.4,286046998.5,N,1.6
